Back to catalog

STARLINK-36643

AliveCommunicationsVLEO
NORAD 67822·PAYLOAD·🇺🇸 United States

Launched Feb 16, 2026 from Vandenberg Space Force Base

Loading…

Next Passes (next 24 hours)

TLE

FreshSource: CelesTrak SupGP

Epoch: Sep 15, 2026, 03:40 UTC

1 67822C 26033B   26258.15326389 -.00013709  00000+0 -49660-3 0  2586
2 67822  43.0003 277.3411 0001486 266.8433 212.2343 15.27581905    14

Track STARLINK-36643 in real time with AllMySat

Download on the App Store